Weather History for Chicago DuPage, IL

Change the Weather History Date:

Wednesday, February 6, 2013

  Actual Average Record
Temperature  
Mean Temperature 21 °F 26 °F  
Max Temperature 36 °F 34 °F 46 °F (2005)
Min Temperature 6 °F 17 °F -7 °F (2007)
Degree Days  
Heating Degree Days 44 40  
Month to date heating degree days 298 240  
Since 1 July heating degree days 3905 3955  
Cooling Degree Days 0 0  
Month to date cooling degree days 0 0  
Year to date cooling degree days 0 0  
Moisture  
Dew Point 17 °F    
Average Humidity 80    
Maximum Humidity 96    
Minimum Humidity 66    
Precipitation  
Precipitation 0.00 in 0.05 in 0.24 in (2008)
Month to date precipitation 0.09 0.23  
Year to date precipitation 3.09 1.54  
Sea Level Pressure  
Sea Level Pressure 30.18 in    
Wind  
Wind Speed 7 mph (South)    
Max Wind Speed 15 mph    
Max Gust Speed 20 mph    
Visibility 8 miles    
Events Fog    
T = Trace of Precipitation, MM = Missing Value Source: NWS Daily Summary

Daily Weather History Graph

Daily Weather History Graph

Search for Another Location

Airport:

Trip Planner

Search our weather history database for the weather conditions in past years. The results will help you decide how hot, cold, wet, or windy it might be!

Date:

Astronomy

Feb. 06, 2013 Rise Set
Actual Time 6:59 AM CST 5:14 PM CST
Civil Twilight 6:30 AM CST 5:44 PM CST
Nautical Twilight 5:57 AM CST 6:17 PM CST
Astronomical Twilight 5:25 AM CST 6:49 PM CST
Moon 3:45 AM CST (2/6) 1:31 PM CST (2/6)
Length of Visible Light 11h 13m
Length of Day
10h 15m
Waning Crescent, 17% of the Moon is Illuminated
Feb 6
Waning Crescent
Feb 10
New
Feb 17
First Quarter
Feb 25
Full
Mar 4
Last Quarter

Hourly Weather History & Observations

Time (CST) Temp. Windchill Dew Point Humidity Pressure Visibility Wind Dir Wind Speed Gust Speed Precip Events Conditions
12:52 AM 27.0 °F 18.0 °F 19.0 °F 72% 30.13 in 10.0 mi NNW 9.2 mph - N/A   Overcast
1:52 AM 25.0 °F 14.2 °F 17.1 °F 72% 30.14 in 10.0 mi North 11.5 mph - N/A   Overcast
2:40 AM 17.6 °F 8.2 °F 12.2 °F 79% 30.12 in 10.0 mi NNE 6.9 mph - N/A   Partly Cloudy
2:52 AM 16.0 °F 6.3 °F 12.0 °F 84% 30.15 in 10.0 mi North 6.9 mph - N/A   Scattered Clouds
3:52 AM 17.1 °F - 12.9 °F 84% 30.18 in 8.0 mi Calm Calm - N/A   Clear
4:52 AM 10.9 °F - 8.1 °F 88% 30.19 in 4.0 mi Calm Calm - N/A   Clear
5:52 AM 8.1 °F - 6.1 °F 92% 30.21 in 10.0 mi Calm Calm - N/A   Clear
5:59 AM 8.6 °F - 5.0 °F 85% 30.16 in 0.2 mi Calm Calm - N/A Fog Light Freezing Fog
6:06 AM 8.6 °F - 6.8 °F 92% 30.16 in 10.0 mi Calm Calm - N/A Fog Shallow Fog
6:21 AM 6.8 °F - 3.2 °F 85% 30.16 in 10.0 mi Calm Calm - N/A Fog Shallow Fog
6:52 AM 6.1 °F - 3.9 °F 91% 30.21 in 10.0 mi Calm Calm - N/A   Clear
6:54 AM 6.8 °F - 3.2 °F 85% 30.17 in 0.2 mi Calm Calm - N/A Fog Light Freezing Fog
7:02 AM 6.8 °F - 3.2 °F 85% 30.17 in 10.0 mi Calm Calm - N/A   Clear
7:25 AM 8.6 °F - 5.0 °F 85% 30.18 in 10.0 mi Calm Calm - N/A Fog Shallow Fog
7:52 AM 8.1 °F - 7.0 °F 95% 30.22 in 10.0 mi Calm Calm - N/A Fog Shallow Fog
8:52 AM 12.9 °F - 12.0 °F 96% 30.25 in 10.0 mi Calm Calm - N/A   Clear
9:52 AM 19.9 °F 14.9 °F 16.0 °F 85% 30.24 in 6.0 mi SSW 3.5 mph - N/A   Clear
10:52 AM 30.0 °F 21.1 °F 19.9 °F 66% 30.24 in 8.0 mi South 10.4 mph - N/A   Clear
11:52 AM 32.0 °F 24.8 °F 21.9 °F 66% 30.23 in 8.0 mi South 8.1 mph - N/A   Partly Cloudy
12:52 PM 33.1 °F 24.4 °F 23.0 °F 66% 30.21 in 8.0 mi South 11.5 mph - N/A   Clear
1:52 PM 34.0 °F 25.0 °F 25.0 °F 70% 30.20 in 8.0 mi South 12.7 mph - N/A   Mostly Cloudy
2:52 PM 35.1 °F 27.9 °F 26.1 °F 70% 30.19 in 9.0 mi South 9.2 mph - N/A   Overcast
3:52 PM 36.0 °F 29.0 °F 27.0 °F 70% 30.18 in 8.0 mi South 9.2 mph - N/A   Mostly Cloudy
4:23 PM 35.6 °F 29.2 °F 28.4 °F 75% 30.15 in 8.0 mi South 8.1 mph - N/A   Mostly Cloudy
4:41 PM 35.6 °F 29.2 °F 28.4 °F 75% 30.13 in 8.0 mi South 8.1 mph - N/A   Scattered Clouds
4:52 PM 36.0 °F 29.6 °F 28.0 °F 73% 30.16 in 8.0 mi SSE 8.1 mph - N/A   Partly Cloudy
5:52 PM 36.0 °F 28.5 °F 28.0 °F 73% 30.15 in 9.0 mi SSE 10.4 mph - N/A   Clear
6:52 PM 35.1 °F 27.9 °F 28.9 °F 78% 30.14 in 9.0 mi SSE 9.2 mph - N/A   Scattered Clouds
7:52 PM 35.1 °F 27.4 °F 28.9 °F 78% 30.16 in 9.0 mi South 10.4 mph - N/A   Mostly Cloudy
8:52 PM 35.1 °F 28.6 °F 28.9 °F 78% 30.14 in 8.0 mi SSE 8.1 mph - N/A   Mostly Cloudy
9:52 PM 34.0 °F 26.0 °F 28.0 °F 79% 30.13 in 8.0 mi SSE 10.4 mph - N/A   Overcast